{"data":{"norad_id":62208,"epoch":"2026-09-21T08:06:18.874944Z","epoch_age_seconds":105262,"freshness":"FRESH","line1":"1 62208U 24229S   26264.33771846  .00008480  00000+0  31726-3 0  9997","line2":"2 62208  43.0025 245.7621 0001303 267.2177  92.8526 15.27586658100488","mean_motion":15.27586658,"eccentricity":0.0001303,"inclination_deg":43.0025,"raan_deg":245.7621,"arg_perigee_deg":267.2177,"mean_anomaly_deg":92.8526,"bstar":0.00031726,"rev_number":10048,"period_min":94.266337851191,"perigee_km":482.13514971426,"apogee_km":483.92316961546,"semimajor_km":6861.1661596649,"source":"CELESTRAK","updated_at":"2026-09-22T09:00:49.542284Z"}}